Regional Weather Roundup
Issued by NWS

Home | Current Version | Previous Version | Text Only | Print | Product List | Glossary Off
Versions: 1 2 3 4 5 6 7 8 9 10 11 12 13 14 15 16 17 18 19 20 21 22 23 24 25 26 27 28 29 30 31 32 33 34 35 36 37 38 39 40 41 42 43 44 45 46 47 48 49 50

263
ASUS45 KBOU 162210
RWRCO

WEATHER ROUNDUP FOR COLORADO
NATIONAL WEATHER SERVICE DENVER/BOULDER CO
300 PM MST THU NOV 16 2017

NOTE: "FAIR" INDICATES FEW OR NO CLOUDS BELOW 12000 FEET WITH NO
SIGNIFICANT WEATHER AND/OR OBSTRUCTIONS TO VISIBILITY.

COZ001>005-013-030-031-162300-
...NORTHWEST COLORADO...

CITY           SKY/WX    TMP DP  RH WIND       PRES   REMARKS
CRAIG          FAIR      58  22  24 SW22G29   29.88S
HAYDEN         FAIR      57  24  28 SW21G31   29.89F
MEEKER         FAIR      58  22  24 SW15      29.91R
RABBIT EARS PA CLOUDY    37  23  56 W8        30.05S
STEAMBOAT SPGS FAIR      56  24  28 SW12G20   29.89F
WALDEN         FAIR      50  19  29 SW22G30   29.91S
$$

COZ006>008-011-162300-
...WEST CENTRAL VALLEYS...

CITY           SKY/WX    TMP DP  RH WIND       PRES   REMARKS
GRAND JUNCTION FAIR      61  25  25 W10       29.92R
MONTROSE       FAIR      64  25  22 SW15G23   30.00R
EAGLE          FAIR      57  22  25 W9        29.95F
RIFLE          FAIR      61  23  23 SW10      29.91S
DELTA          PTSUNNY   68  26  20 SW21G26   29.96S
NUCLA          PTSUNNY   61  23  23 SW16      30.07R
$$

COZ017>023-064>068-162300-
...SOUTHWEST COLORADO...

CITY           SKY/WX    TMP DP  RH WIND       PRES   REMARKS
DURANGO        FAIR      59  21  23 SW14      30.11S
CORTEZ         CLOUDY    62  21  20 SW6       30.07F
PAGOSA SPRINGS PTSUNNY   56  19  23 SW6       30.14F
TELLURIDE      CLOUDY    51  26  39 W17G24    30.18R
WOLF CREEK PAS NOT AVBL
$$

COZ009-010-012-014-032>034-037-058>063-162300-
...CENTRAL COLORADO...

CITY           SKY/WX    TMP DP  RH WIND       PRES   REMARKS
ASPEN          FAIR      56  21  25 S9G22     29.98F
BUENA VISTA    FAIR      57  17  21 SW13G23   30.00F
COPPER MTN     FAIR      37  19  48 W16G28    30.16F
BERTHOUD PASS  FAIR      32  23  69 W31G51    30.13F WCI  17
COTTONWOOD PAS FAIR      54  19  26 W20G35    30.08S
GUNNISON       FAIR      55  25  31 W14G29    30.03S
KREMMLING      FAIR      61  19  20 W16       29.94F
LEADVILLE      FAIR      47  13  25 SW10G22   30.06F
MONARCH PASS   FAIR      37  21  52 W33G46    30.28S
SALIDA         FAIR      63  23  22 SW16G23   30.07F
SUNLIGHT       PTSUNNY   37  21  52 SW16G32   30.13F
WILKERSON PASS FAIR      43  14  31 SW16G26   30.14F
$$

COZ069>075-162300-
...SAN LUIS VALLEY/SANGRE DE CRISTO MOUNTAINS...

CITY           SKY/WX    TMP DP  RH WIND       PRES   REMARKS
ALAMOSA        FAIR      62  22  21 W25G38    30.04F
DEL NORTE      FAIR      58  21  23 SW21G32   30.05F
LA VETA PASS   FAIR      50  21  32 S29         N/A
SAGUACHE       FAIR      54  19  26 CALM      30.05F
$$

COZ035-036-038>040-162300-
...NORTHERN COLORADO FRONT RANGE...

CITY           SKY/WX    TMP DP  RH WIND       PRES   REMARKS
DENVER INTL AP PTSUNNY   71  16  12 S5        29.76S
DMNS CITY PARK   N/A     73  15  11 SW9G18    29.76R
AURORA         PTSUNNY   65  20  18 SW8       29.78S
FRONT RANGE AP PTSUNNY   73  18  12 SE9       29.78S
ERIE MUNI ARPT FAIR      67  26  21 NE3       29.80S
BOULDER MUN AP FAIR      70  23  17 SW10G20   29.74S
CENTENNIAL     PTSUNNY   67  23  19 CALM      29.78F
BROOMFIELD     PTSUNNY   70  19  14 N12       29.78R
FORT COLLINS   FAIR      65  33  30 SE9       29.75S
LONGMONT       FAIR      74  23  15 SW10G18   29.76F
$$

COZ041-046-047-076>085-087-088-162300-
...PIKES PEAK/PALMER DIVIDE AND SOUTHERN FOOTHILLS...

CITY           SKY/WX    TMP DP  RH WIND       PRES   REMARKS
COLO. SPRINGS  PTSUNNY   72  19  13 NE9       29.86R
A. F. ACADEMY  FAIR      67  18  15 W24G37    29.85S
SCHRIEVER AFB  FAIR      69  16  13 NW7       29.86R
CHEYENNE MTN   FAIR      63  19  18 CALM      29.83F
ELLICOTT         N/A    N/A N/A N/A SW20G26   29.84F
FALCON         FAIR      67  14  13 W30G40    29.89F
FORT CARSON    FAIR      73  21  14 S8        29.82S
LIMON          FAIR      67  17  14 SW12      29.80F
MONUMENT HILL  FAIR      64  19  17 W25G33    29.89S
CANON CITY     FAIR      72  25  17 W21G29    29.83S
WALSENBURG     FAIR      73  23  15 SW22G29   29.90R
TRINIDAD       FAIR      69  23  17 E5        29.90S
$$

COZ042>045-048>051-090-091-162300-
...NORTHEAST COLORADO...

CITY           SKY/WX    TMP DP  RH WIND       PRES   REMARKS
GREELEY ARPT   FAIR      61  33  35 S3        29.75R
AKRON          FAIR      72  16  12 S9        29.75S
BURLINGTON     FAIR      70  22  16 SW20      29.78R
WRAY           NOT AVBL
YUMA           FAIR      64  27  24 E10       29.74S
STERLING       FAIR      63  28  27 CALM      29.70S
HOLYOKE        FAIR      63  28  27 S8        29.75R
FORT MORGAN    FAIR      67  24  19 CALM      29.74S
$$

COZ086-089-092>099-162300-
...SOUTHEAST COLORADO...

CITY           SKY/WX    TMP DP  RH WIND       PRES   REMARKS
PUEBLO         FAIR      74  19  12 S8        29.79F
LA JUNTA       FAIR      75  23  14 SW13      29.78F
LAMAR          FAIR      73  28  18 MISG      29.77F
SPRINGFIELD      N/A     68  26  20 S12       29.83F
$$




USA.gov is the U.S. government's official web portal to all federal, state and local government web resources and services.